When you browse on this site, cookies collect data to enhance your experience and personalize the content and advertising you see.
Visit our Privacy Policy to learn more. By continuing to use the site, you agree to this use of cookies and data.
  • In Schweiz
  • Länderverzeichnis
  • Für 7 Tage
  • Wassertemperatur
  • Wetterkarte
  • Widgets
  • user-avatar
    Anmelden

    Stündliche Wetter Metz

    Heute, 25 Mai, Montag

    Zeit Temperatur Niederschläge Wind Luftdruck Luftfeuchtigkeit
    00:00 +11°C° 0 mm 1 m/S 759 mmHg 93%
    01:00 +11°C° 0 mm 1 m/S 759 mmHg 93%
    02:00 +10°C° 0 mm 1 m/S 759 mmHg 93%
    03:00 +10°C° 0 mm 1 m/S 759 mmHg 93%
    04:00 +11°C° 0 mm 1 m/S 759 mmHg 91%
    05:00 +12°C° 0 mm 1 m/S 760 mmHg 89%
    06:00 +13°C° 0 mm 1 m/S 760 mmHg 88%
    07:00 +15°C° 0 mm 2 m/S 760 mmHg 83%
    08:00 +16°C° 0 mm 2 m/S 760 mmHg 77%
    09:00 +18°C° 0 mm 2 m/S 760 mmHg 72%
    10:00 +18°C° 0.1 mm 3 m/S 759 mmHg 68%
    11:00 +19°C° 0.1 mm 3 m/S 759 mmHg 64%
    12:00 +20°C° 0.1 mm 3 m/S 759 mmHg 61%
    13:00 +20°C° 0 mm 3 m/S 759 mmHg 62%
    14:00 +20°C° 0 mm 4 m/S 759 mmHg 63%
    15:00 +20°C° 0 mm 4 m/S 758 mmHg 64%
    16:00 +20°C° 0 mm 4 m/S 758 mmHg 68%
    17:00 +19°C° 0 mm 3 m/S 758 mmHg 72%
    18:00 +18°C° 0 mm 3 m/S 758 mmHg 76%
    19:00 +17°C° 0 mm 3 m/S 759 mmHg 79%
    20:00 +14°C° 0 mm 3 m/S 759 mmHg 82%
    21:00 +13°C° 0 mm 3 m/S 759 mmHg 85%
    22:00 +12°C° 0 mm 3 m/S 759 mmHg 86%
    23:00 +11°C° 0 mm 3 m/S 759 mmHg 87%

    Morgen, 26 Mai, Dienstag

    Zeit Temperatur Niederschläge Wind Luftdruck Luftfeuchtigkeit
    00:00 +11°C° 0 mm 3 m/S 760 mmHg 88%
    01:00 +10°C° 0 mm 3 m/S 759 mmHg 89%
    02:00 +10°C° 0 mm 2 m/S 759 mmHg 90%
    03:00 +9°C° 0 mm 2 m/S 759 mmHg 91%
    04:00 +10°C° 0 mm 2 m/S 759 mmHg 88%
    05:00 +11°C° 0 mm 3 m/S 760 mmHg 86%
    06:00 +12°C° 0 mm 3 m/S 760 mmHg 83%
    07:00 +13°C° 0 mm 3 m/S 760 mmHg 78%
    08:00 +14°C° 0 mm 3 m/S 760 mmHg 72%
    09:00 +17°C° 0 mm 3 m/S 760 mmHg 67%
    10:00 +18°C° 0 mm 3 m/S 760 mmHg 63%
    11:00 +19°C° 0 mm 4 m/S 760 mmHg 60%
    12:00 +20°C° 0 mm 4 m/S 759 mmHg 57%
    13:00 +20°C° 0 mm 4 m/S 759 mmHg 57%
    14:00 +20°C° 0 mm 4 m/S 759 mmHg 57%
    15:00 +21°C° 0 mm 4 m/S 759 mmHg 57%
    16:00 +20°C° 0 mm 3 m/S 759 mmHg 62%
    17:00 +19°C° 0 mm 3 m/S 759 mmHg 67%
    18:00 +18°C° 0 mm 2 m/S 758 mmHg 72%
    19:00 +17°C° 0 mm 2 m/S 759 mmHg 73%
    20:00 +15°C° 0 mm 2 m/S 759 mmHg 74%
    21:00 +14°C° 0 mm 2 m/S 759 mmHg 76%
    22:00 +13°C° 0 mm 2 m/S 759 mmHg 78%
    23:00 +12°C° 0 mm 2 m/S 759 mmHg 81%

    übermorgen, 27 Mai, Mittwoch

    Zeit Temperatur Niederschläge Wind Luftdruck Luftfeuchtigkeit
    00:00 +12°C° 0 mm 2 m/S 759 mmHg 84%
    01:00 +10°C° 0 mm 2 m/S 759 mmHg 85%
    02:00 +10°C° 0 mm 2 m/S 759 mmHg 85%
    03:00 +10°C° 0 mm 2 m/S 759 mmHg 86%
    04:00 +12°C° 0 mm 2 m/S 759 mmHg 84%
    05:00 +13°C° 0 mm 2 m/S 759 mmHg 82%
    06:00 +14°C° 0 mm 2 m/S 759 mmHg 80%
    07:00 +16°C° 0 mm 2 m/S 759 mmHg 75%
    08:00 +17°C° 0 mm 2 m/S 759 mmHg 70%
    09:00 +19°C° 0 mm 3 m/S 759 mmHg 64%
    10:00 +20°C° 0 mm 3 m/S 759 mmHg 61%
    11:00 +21°C° 0 mm 2 m/S 758 mmHg 58%
    12:00 +23°C° 0 mm 2 m/S 758 mmHg 55%
    13:00 +23°C° 0 mm 2 m/S 758 mmHg 55%
    14:00 +23°C° 0 mm 2 m/S 758 mmHg 55%
    15:00 +23°C° 0 mm 2 m/S 757 mmHg 56%
    16:00 +23°C° 0 mm 2 m/S 757 mmHg 61%
    17:00 +21°C° 0 mm 2 m/S 757 mmHg 66%
    18:00 +20°C° 0 mm 2 m/S 757 mmHg 71%
    19:00 +19°C° 0 mm 2 m/S 757 mmHg 73%
    20:00 +17°C° 0 mm 2 m/S 757 mmHg 75%
    21:00 +16°C° 0 mm 3 m/S 757 mmHg 77%
    22:00 +14°C° 0 mm 3 m/S 758 mmHg 81%
    23:00 +13°C° 0 mm 3 m/S 758 mmHg 84%

    28 Mai, Donnerstag

    Zeit Temperatur Niederschläge Wind Luftdruck Luftfeuchtigkeit
    00:00 +12°C° 0 mm 3 m/S 758 mmHg 87%
    01:00 +12°C° 0 mm 3 m/S 757 mmHg 89%
    02:00 +11°C° 0 mm 3 m/S 757 mmHg 90%
    03:00 +11°C° 0 mm 3 m/S 757 mmHg 92%
    04:00 +11°C° 0 mm 4 m/S 757 mmHg 89%
    05:00 +12°C° 0 mm 4 m/S 757 mmHg 86%
    06:00 +12°C° 0 mm 4 m/S 757 mmHg 82%
    07:00 +13°C° 0 mm 4 m/S 757 mmHg 78%
    08:00 +15°C° 0 mm 4 m/S 757 mmHg 74%
    09:00 +16°C° 0 mm 5 m/S 757 mmHg 70%
    10:00 +18°C° 0 mm 4 m/S 757 mmHg 66%
    11:00 +19°C° 0 mm 4 m/S 756 mmHg 62%
    12:00 +20°C° 0 mm 4 m/S 756 mmHg 58%
    13:00 +20°C° 0 mm 4 m/S 755 mmHg 56%
    14:00 +20°C° 0 mm 4 m/S 755 mmHg 53%
    15:00 +20°C° 0 mm 5 m/S 755 mmHg 51%
    16:00 +19°C° 0 mm 4 m/S 755 mmHg 56%
    17:00 +18°C° 0 mm 4 m/S 754 mmHg 60%
    18:00 +17°C° 0 mm 3 m/S 754 mmHg 65%
    19:00 +14°C° 0 mm 3 m/S 754 mmHg 65%
    20:00 +13°C° 0 mm 3 m/S 754 mmHg 65%
    21:00 +11°C° 0 mm 3 m/S 755 mmHg 65%
    22:00 +10°C° 0 mm 3 m/S 754 mmHg 68%
    23:00 +10°C° 0 mm 3 m/S 754 mmHg 71%

    29 Mai, Freitag

    Zeit Temperatur Niederschläge Wind Luftdruck Luftfeuchtigkeit
    00:00 +8°C° 0 mm 4 m/S 754 mmHg 74%
    01:00 +8°C° 0 mm 3 m/S 754 mmHg 78%
    02:00 +8°C° 0 mm 3 m/S 754 mmHg 82%
    03:00 +7°C° 0 mm 3 m/S 753 mmHg 86%
    04:00 +8°C° 0 mm 3 m/S 753 mmHg 83%
    05:00 +9°C° 0 mm 3 m/S 753 mmHg 80%
    06:00 +10°C° 0 mm 4 m/S 753 mmHg 77%
    07:00 +11°C° 0 mm 4 m/S 753 mmHg 72%
    08:00 +13°C° 0 mm 4 m/S 753 mmHg 67%
    09:00 +14°C° 0 mm 4 m/S 752 mmHg 62%
    10:00 +15°C° 0 mm 4 m/S 752 mmHg 59%
    11:00 +17°C° 0 mm 4 m/S 752 mmHg 55%
    12:00 +18°C° 0 mm 4 m/S 751 mmHg 52%
    13:00 +18°C° 0 mm 3 m/S 751 mmHg 52%
    14:00 +19°C° 0 mm 3 m/S 750 mmHg 52%
    15:00 +19°C° 0 mm 3 m/S 750 mmHg 52%
    16:00 +18°C° 0 mm 3 m/S 750 mmHg 57%
    17:00 +18°C° 0 mm 3 m/S 750 mmHg 63%
    18:00 +17°C° 0 mm 3 m/S 750 mmHg 69%
    19:00 +16°C° 0 mm 3 m/S 750 mmHg 68%
    20:00 +13°C° 0 mm 4 m/S 751 mmHg 68%
    21:00 +12°C° 0 mm 4 m/S 751 mmHg 67%
    22:00 +11°C° 0 mm 4 m/S 751 mmHg 72%
    23:00 +10°C° 0 mm 3 m/S 751 mmHg 77%

    30 Mai, Samstag

    Zeit Temperatur Niederschläge Wind Luftdruck Luftfeuchtigkeit
    00:00 +9°C° 0 mm 3 m/S 751 mmHg 82%
    01:00 +8°C° 0 mm 3 m/S 751 mmHg 84%
    02:00 +7°C° 0 mm 3 m/S 751 mmHg 86%
    03:00 +7°C° 0 mm 3 m/S 751 mmHg 87%
    04:00 +8°C° 0 mm 3 m/S 751 mmHg 83%
    05:00 +8°C° 0 mm 4 m/S 752 mmHg 79%
    06:00 +10°C° 0 mm 4 m/S 752 mmHg 75%
    07:00 +12°C° 0 mm 4 m/S 752 mmHg 69%
    08:00 +13°C° 0 mm 5 m/S 752 mmHg 63%
    09:00 +15°C° 0 mm 5 m/S 752 mmHg 57%
    10:00 +16°C° 0 mm 5 m/S 751 mmHg 55%
    11:00 +17°C° 0 mm 5 m/S 751 mmHg 53%
    12:00 +19°C° 0 mm 5 m/S 751 mmHg 52%
    13:00 +19°C° 0 mm 5 m/S 751 mmHg 53%
    14:00 +19°C° 0 mm 5 m/S 751 mmHg 54%
    15:00 +20°C° 0 mm 5 m/S 750 mmHg 55%
    16:00 +19°C° 0 mm 4 m/S 750 mmHg 59%
    17:00 +18°C° 0 mm 4 m/S 750 mmHg 64%
    18:00 +17°C° 0 mm 3 m/S 750 mmHg 68%
    19:00 +16°C° 0 mm 3 m/S 750 mmHg 69%
    20:00 +13°C° 0 mm 3 m/S 750 mmHg 69%
    21:00 +12°C° 0 mm 3 m/S 750 mmHg 70%
    22:00 +11°C° 0 mm 3 m/S 750 mmHg 73%
    23:00 +10°C° 0 mm 2 m/S 750 mmHg 75%
    Mehr zeigen